Wind_Speed
16 19 20 19 24 21 18 16 17 20 21 22 20 20 18 16 15 15 14 15 14 11 12 13 13 13 13 10 9 11 13 14 16 18 19 18 18 17 16 16 16 14 15
21 20 22 20 24 21 19 17 17 19 22 23 20 19 19 16 15 14 13 14 12 10 9 11 11 12 12 11 11 13 13 15 17 17 18 16 15 15 16 12 14 15 15
20 20 20 21 26 23 20 18 18 20 22 21 21 19 18 16 14 13 13 13 11 9 7 7 8 9 11 11 10 13 13 16 17 17 18 14 13 15 15 14 15 16 16
19 19 19 20 25 24 21 19 18 19 22 21 20 18 17 14 14 12 11 11 9 7 7 8 8 7 9 10 10 12 15 16 17 18 12 13 14 14 14 15 16 16 15
18 19 18 21 22 24 22 20 18 18 21 20 20 17 16 14 12 12 11 9 8 7 6 8 8 9 9 10 11 13 16 17 17 12 11 14 13 13 14 14 15 16 16
17 17 18 20 19 20 21 20 19 18 19 19 19 17 15 12 11 11 11 9 8 7 8 8 8 8 9 11 12 14 18 17 17 12 11 11 12 14 14 14 14 15 15
17 16 15 19 17 16 17 19 19 20 18 18 18 16 15 12 11 11 9 9 8 8 9 9 9 8 8 10 12 16 18 17 14 12 11 11 11 15 14 13 13 13 14
18 16 15 16 17 16 16 16 17 18 17 16 15 14 13 12 12 10 9 8 9 8 9 9 9 9 9 10 13 17 18 18 13 12 11 9 12 13 13 13 13 13 12
17 15 14 15 15 15 15 15 17 18 18 17 14 13 14 12 12 10 10 8 9 9 9 9 9 10 10 11 13 15 15 18 13 12 12 10 12 12 13 13 13 13 12
16 16 14 14 14 14 14 17 17 17 16 15 14 12 11 10 10 9 9 9 9 9 9 10 9 10 10 10 13 16 14 16 13 12 11 11 12 12 12 13 13 12 13
15 15 15 14 14 15 15 17 16 15 12 10 9 9 9 10 10 9 10 10 9 8 10 10 10 11 11 10 11 14 15 14 13 12 10 10 13 12 12 12 12 13 12
15 14 13 13 13 13 13 12 15 15 15 18 16 10 13 14 12 8 8 9 9 9 10 10 10 11 11 11 10 12 13 12 11 11 8 11 14 12 12 11 11 12 12
14 13 12 11 11 11 11 11 12 12 15 18 17 12 26 23 13 7 7 8 8 10 9 8 9 10 9 9 10 11 11 12 9 11 11 12 13 12 11 11 11 11 12
13 11 10 10 10 11 10 11 12 13 16 16 17 15 19 16 19 9 9 8 10 11 9 10 11 8 8 8 8 9 10 11 10 11 8 13 13 14 11 11 11 11 12
12 11 10 10 10 9 10 10 13 13 16 17 21 23 24 21 18 16 13 10 10 11 11 9 8 8 8 9 9 9 8 8 10 10 9 11 14 15 13 12 13 12 12
13 12 11 11 10 9 8 10 11 12 12 17 17 19 24 20 19 21 18 13 12 12 11 10 9 9 8 8 10 10 10 8 9 9 10 9 12 15 14 14 14 13 12
14 12 11 10 9 8 7 8 9 11 12 14 16 18 20 18 22 20 22 16 15 14 13 11 10 10 9 8 8 11 11 9 8 8 8 7 12 13 14 14 12 12 12
14 14 12 10 10 9 8 7 9 10 12 14 15 18 20 21 19 17 17 22 15 16 15 13 12 12 10 9 9 10 12 10 10 8 8 9 11 11 12 15 13 14 13
16 15 14 13 10 9 8 8 9 10 13 15 14 18 21 21 22 20 20 23 21 16 16 15 14 13 12 10 9 7 8 9 11 11 10 8 9 10 11 12 13 13 14
15 14 13 13 11 9 8 8 9 10 13 16 18 18 19 22 21 21 22 21 25 18 19 17 15 14 10 8 7 7 6 8 9 11 10 10 10 10 10 9 10 12 13
14 14 13 13 10 9 10 9 11 13 14 16 17 19 20 22 23 20 23 23 20 21 20 19 16 14 9 7 6 6 7 8 9 10 10 10 9 8 6 10 10 10 8
15 14 13 12 9 9 9 10 10 11 11 14 14 18 20 22 22 22 20 22 22 25 23 21 15 13 10 9 6 6 4 6 10 10 7 9 9 9 8 9 10 9 8
12 13 12 8 6 6 6 8 12 12 10 9 13 15 18 20 21 22 21 19 22 27 24 24 20 15 10 9 8 7 3 2 3 8 11 10 10 10 9 8 9 11 11
11 9 7 6 5 3 5 9 10 13 13 14 14 12 14 18 19 20 21 20 22 24 24 26 19 16 13 10 9 11 4 5 1 2 8 10 11 11 10 10 10 11 12
9 9 6 4 3 2 4 6 9 12 13 12 12 12 14 14 16 20 20 19 20 22 22 23 19 15 17 10 11 8 7 5 4 5 2 7 10 12 12 12 12 11 13
8 7 5 4 1 1 2 7 9 9 8 9 8 12 12 11 13 16 17 19 21 20 22 19 17 18 15 11 10 8 7 5 4 5 4 3 3 10 11 11 12 11 11
Wind_Direction
168 165 167 175 174 173 172 173 176 174 175 170 167 160 156 151 148 142 138 134 139 136 125 134 133 130 130 126 117 126 136 132 129 130 125 125 123 126 123 123 116 113 115
162 164 167 176 176 173 172 170 175 172 171 169 167 166 160 158 151 146 144 138 142 142 134 136 141 137 132 126 124 132 141 138 133 130 129 125 126 128 123 118 116 121 118
158 163 169 178 178 176 174 169 168 171 172 171 169 172 167 164 156 152 149 145 156 156 151 152 150 150 143 139 136 138 143 139 136 134 127 126 130 131 126 124 126 122 120
157 163 170 181 178 181 178 175 171 169 173 174 174 177 174 173 165 156 155 155 156 158 163 160 156 156 154 151 147 144 145 143 140 134 154 131 133 134 131 130 128 126 123
162 164 173 182 184 184 184 183 179 177 179 178 183 180 181 179 173 162 157 164 163 161 165 159 163 154 154 154 153 153 150 148 145 138 138 131 134 142 136 133 131 125 122
169 167 180 182 186 185 185 185 185 184 180 177 175 178 178 182 178 168 161 166 163 166 163 163 158 155 158 154 161 160 156 153 145 145 142 130 138 147 138 133 134 139 140
172 173 173 184 188 190 187 187 186 186 184 181 180 179 182 181 180 178 170 173 169 171 160 158 154 161 159 160 161 160 157 155 157 149 142 143 139 143 142 141 141 140 139
173 179 174 189 190 193 191 187 187 184 182 185 185 183 185 181 184 191 189 187 176 173 167 160 158 160 158 163 164 160 163 154 160 156 151 143 147 146 149 145 146 147 150
176 180 180 179 187 194 199 191 190 190 184 178 177 184 192 196 191 196 199 198 191 177 175 166 161 160 157 165 163 165 172 162 169 163 164 157 164 154 156 157 156 154 153
176 182 185 186 189 194 198 202 199 194 187 181 180 189 190 203 205 207 208 202 193 179 173 168 165 160 161 168 170 170 175 174 178 166 174 156 168 163 165 164 166 163 164
178 185 192 195 199 205 204 206 206 200 193 196 190 169 223 213 217 217 212 211 198 188 177 173 167 165 166 167 174 172 173 181 184 176 177 185 181 170 169 171 174 172 171
182 185 190 197 198 200 209 214 206 206 196 191 194 204 237 250 215 213 212 211 207 200 187 173 172 176 167 174 179 179 185 197 186 187 175 196 183 178 177 179 182 184 184
188 190 193 195 201 201 204 210 216 200 194 196 192 96 248 239 215 211 219 216 215 208 190 180 179 180 193 184 171 192 194 191 178 188 198 192 190 183 183 187 189 194 192
184 185 183 184 190 195 207 219 219 207 206 200 200 192 201 217 209 209 246 229 218 208 202 195 187 179 185 196 178 187 190 189 182 198 201 202 196 193 192 191 198 200 199
185 186 189 190 195 200 211 225 226 218 208 207 214 218 206 203 199 205 239 252 232 217 201 204 194 182 189 188 191 185 182 190 186 194 184 201 203 200 200 200 202 205 207
191 192 195 195 197 202 211 221 230 228 220 214 208 212 212 204 195 206 219 243 243 221 213 198 196 187 190 192 196 201 199 187 195 193 195 199 207 204 209 209 207 206 213
196 197 199 197 195 202 201 223 232 237 229 222 220 217 219 211 203 203 208 225 240 229 219 201 196 194 194 192 196 201 206 202 196 210 231 197 205 208 213 216 211 205 225
195 198 198 198 195 204 206 205 226 235 238 231 228 220 219 215 207 204 209 218 223 227 222 201 201 204 207 198 196 200 205 203 205 205 219 219 211 210 218 220 208 212 216
203 198 195 193 199 200 206 216 223 230 240 235 228 221 219 221 217 210 213 222 218 217 218 207 209 209 205 204 202 202 207 210 215 219 229 233 229 209 211 217 211 211 219
206 204 196 194 199 201 205 219 234 243 240 241 237 230 221 221 220 218 219 224 220 212 213 210 210 210 206 199 210 213 210 218 224 234 238 236 235 216 208 204 205 220 225
207 207 200 196 200 201 212 226 245 246 244 240 236 232 226 221 221 216 214 217 219 216 215 212 211 212 197 186 191 238 239 233 230 231 228 235 233 230 225 216 218 221 220
205 213 213 209 212 215 225 245 258 262 258 245 242 235 230 224 221 220 213 211 211 215 213 209 209 204 195 196 235 260 241 215 226 228 219 209 213 223 230 225 221 221 227
204 210 213 220 209 218 233 263 268 264 263 250 249 235 226 222 217 216 214 209 204 213 216 209 209 209 193 199 220 260 254 236 197 222 218 211 208 219 225 222 226 226 229
196 198 199 188 197 211 241 274 276 271 263 261 252 245 220 215 216 212 211 214 209 209 215 212 213 208 204 204 208 228 264 329 353 198 219 215 217 220 219 224 226 225 223
171 174 176 166 167 267 260 262 267 268 266 265 252 237 215 210 210 209 210 210 204 206 211 212 207 203 207 220 208 202 215 247 262 302 178 180 220 226 228 230 232 231 226
162 162 177 187 146 159 252 286 277 291 299 286 268 223 195 205 202 202 203 204 198 198 203 206 203 199 206 204 206 204 215 222 217 237 244 213 228 185 218 223 226 233 230
Height
785 789 793 796 798 801 804 806 807 808 811 813 816 817 819 822 824 824 826 827 830 833 832 833 834 835 836 837 837 838 839 841 841 843 845 846 848 849 851 852 853 856 857
784 790 793 796 800 802 804 806 807 809 811 814 816 819 820 822 824 826 827 829 831 834 834 834 836 836 836 838 838 838 840 842 844 845 847 849 851 852 854 854 856 857 858
786 791 795 797 800 803 805 807 808 810 813 814 817 820 822 823 825 827 828 830 833 834 835 835 836 837 837 838 840 840 842 844 846 847 849 851 853 854 855 856 856 858 859
787 792 796 798 801 804 806 807 809 811 813 817 819 821 824 825 826 828 830 831 834 835 835 835 836 838 838 840 841 841 843 845 848 849 849 851 854 856 857 858 858 860 861
789 792 796 799 802 804 806 809 811 813 815 817 820 822 825 827 829 830 831 833 834 835 836 836 837 838 839 841 842 843 844 847 849 849 851 852 855 857 858 859 860 861 862
791 793 796 800 803 805 807 809 812 815 817 818 821 824 826 829 831 832 833 834 835 835 836 837 838 839 841 841 843 844 845 847 849 851 852 854 856 857 859 861 862 862 863
792 794 798 801 804 807 809 811 813 816 818 820 822 825 827 829 832 834 833 834 835 836 836 837 838 840 841 842 843 844 845 848 850 852 854 855 858 858 860 861 863 864 865
792 795 799 802 805 808 811 813 816 818 819 822 824 826 828 830 832 834 834 835 835 836 836 837 838 840 841 842 843 845 846 849 851 852 854 855 857 860 861 862 863 865 866
793 796 801 803 807 809 810 813 815 817 819 822 825 828 830 832 832 834 835 835 835 835 836 838 839 840 841 843 844 846 848 849 851 853 855 856 858 859 861 863 864 865 867
794 797 800 804 808 809 812 813 817 819 819 823 826 829 831 832 832 834 835 835 836 836 836 837 839 840 842 843 844 846 849 851 851 853 854 855 858 859 861 862 864 865 867
794 797 799 802 806 808 810 813 815 819 823 827 829 830 835 834 834 835 835 835 834 835 836 837 838 840 842 843 845 847 849 850 850 851 853 855 858 859 861 863 864 865 867
794 796 798 801 804 806 809 812 814 817 821 823 830 827 834 836 832 833 835 835 835 836 836 837 838 840 841 843 845 847 848 849 850 852 853 855 857 859 860 862 864 866 868
792 795 797 800 803 805 807 811 813 816 819 822 824 824 822 832 832 831 834 834 835 836 836 837 838 839 840 842 843 845 846 847 850 852 854 855 857 858 860 862 864 866 867
791 794 797 799 802 805 807 809 811 813 816 818 820 818 823 828 826 826 831 833 834 834 834 835 836 837 839 841 842 844 845 846 849 851 852 854 855 857 859 861 863 864 866
791 794 796 799 801 804 807 807 809 810 812 815 817 818 820 825 822 820 827 832 832 834 834 835 836 837 838 840 841 843 845 846 847 849 850 852 854 855 857 859 861 863 864
789 792 794 797 800 803 805 807 808 809 810 813 814 815 817 820 819 822 825 829 831 832 834 834 835 836 837 838 840 842 843 845 848 848 848 850 852 854 856 858 859 861 863
786 789 792 795 798 802 804 806 808 807 807 808 811 812 812 813 818 820 822 825 829 830 832 833 834 835 836 837 838 841 842 844 846 848 847 849 850 852 854 856 857 860 860
784 787 790 792 795 798 801 803 805 805 805 806 807 809 811 813 817 817 820 821 825 828 829 831 833 834 834 835 836 838 839 842 844 846 847 848 848 849 851 853 856 858 859
782 784 786 788 792 794 797 800 802 803 802 803 805 807 809 810 812 814 817 819 823 826 828 830 831 832 832 834 836 838 839 840 842 843 845 846 847 848 849 850 853 856 858
780 782 783 786 788 790 793 795 797 798 799 799 800 801 803 806 809 811 814 816 820 823 824 828 830 830 832 833 835 836 837 839 840 842 843 844 845 844 847 849 852 854 856
777 780 781 784 785 789 789 791 792 793 795 795 795 796 798 801 804 807 810 813 815 817 821 825 828 830 831 833 835 835 835 837 837 838 840 841 844 844 845 847 850 851 852
774 777 780 782 784 785 785 787 789 789 789 789 791 791 793 796 799 802 805 808 811 814 819 823 826 828 831 832 831 830 831 833 833 835 837 838 840 842 844 846 849 850 852
772 775 777 780 782 783 783 785 785 785 784 784 785 785 788 791 794 797 800 804 807 812 817 819 823 826 828 830 831 830 828 830 831 833 833 835 837 839 841 844 846 848 849
770 772 775 778 780 782 783 783 783 782 779 779 780 781 783 786 788 792 796 801 805 808 812 816 821 823 827 828 830 831 831 831 824 831 830 833 835 837 839 840 842 844 846
768 771 775 778 779 781 781 780 780 778 776 775 775 777 779 782 784 787 792 796 801 804 807 814 818 821 824 824 826 827 830 830 830 828 823 828 832 834 836 838 839 840 842
768 771 775 777 779 780 781 779 778 775 772 771 772 773 776 778 780 784 788 792 797 802 807 811 816 819 822 823 824 827 827 827 826 827 824 824 825 827 831 833 835 837 838